Essaouira, Morocco

2:18 PM WET on February 13, 2016 (GMT +0000)
Mogador

Weather History for GMMI - August, 2014

Change the Weather History Date:

Thursday, August 28, 2014

  Actual Average Record
Temperature  
Mean Temperature 82 °F -  
Max Temperature 100 °F 72 °F - ()
Min Temperature 64 °F 63 °F - ()
Cooling Degree Days 17    
Growing Degree Days 32 (Base 50)    
Moisture  
Dew Point 62 °F    
Average Humidity 60    
Maximum Humidity 91    
Minimum Humidity 22    
Precipitation  
Precipitation 0.00 in 0.00 in - ()
Sea Level Pressure  
Sea Level Pressure 29.91 in    
Wind  
Wind Speed 12 mph ()    
Max Wind Speed 27 mph    
Max Gust Speed -    
Visibility 2.8 miles    
Events      
T = Trace of Precipitation, MM = Missing Value Source: Averaged Metar Reports

Daily Weather History Graph

Daily Weather History Graph

Search for Another Location

Airport or City:

Trip Planner

Search our weather history database for the weather conditions in past years. The results will help you decide how hot, cold, wet, or windy it might be!

Date:

Astronomy

Aug. 28, 2014 Rise Set
Actual Time 7:12 AM WEST 8:07 PM WEST
Civil Twilight 6:47 AM WEST 8:32 PM WEST
Nautical Twilight 6:17 AM WEST 9:02 PM WEST
Astronomical Twilight 5:47 AM WEST 9:32 PM WEST
Moon 9:39 AM WEST (8/28) 9:38 PM WEST (8/28)
Length of Visible Light 13h 45m
Length of Day
12h 55m
Waxing Crescent, 7% of the Moon is Illuminated
Aug 28
Waxing Crescent
Sep 2
First Quarter
Sep 9
Full
Sep 16
Last Quarter
Sep 24
New

Hourly Weather History & Observations

Time (WEST) Temp. Heat Index Dew Point Humidity Pressure Visibility Wind Dir Wind Speed Gust Speed Precip Events Conditions
1:00 AM 66 °F - 64 °F 89% 29.92 in - NNE 22.4 mph - -  
4:00 AM 64 °F - 61 °F 88% 29.86 in - NNE 20.1 mph - -  
7:00 AM 64 °F - 61 °F 88% 29.86 in - NNE 26.8 mph - -  
8:00 AM 80.6 °F 81.5 °F 60.8 °F 51% 29.89 in 3.1 mi SSE 4.6 mph - N/A   Unknown
9:00 AM 77.0 °F - 60.8 °F 57% 29.92 in 2.5 mi SW 3.5 mph - N/A   Haze
10:00 AM 66 °F - 64 °F 91% 29.92 in - 20.1 mph - -  
10:00 AM 80.6 °F 81.8 °F 62.6 °F 54% 29.92 in 2.5 mi West 6.9 mph - N/A   Haze
11:00 AM 78.8 °F - 64.4 °F 61% 29.95 in 2.5 mi NW 6.9 mph - N/A   Haze
12:00 PM 82.4 °F 83.4 °F 62.6 °F 51% 29.95 in 2.5 mi WNW 6.9 mph - N/A   Haze
1:00 PM 70 °F - 66 °F 83% 30.00 in 4 mi NW 6.9 mph - -   Partly Cloudy
1:00 PM 89.6 °F 90.1 °F 62.6 °F 40% 29.95 in 2.5 mi North 3.5 mph - N/A   Haze
2:00 PM - - 62.6 °F N/A% 29.95 in 2.5 mi NW 8.1 mph - N/A   Haze
3:00 PM 91.4 °F 92.1 °F 62.6 °F 38% 29.92 in 2.5 mi NNW 6.9 mph - N/A   Haze
4:00 PM 72 °F - 67 °F 80% 29.95 in 4 mi NW 9.2 mph - -   Partly Cloudy
4:00 PM 91.4 °F 93.2 °F 64.4 °F 41% 29.89 in 2.5 mi North 9.2 mph - N/A   Haze
5:00 PM 96.8 °F 97.1 °F 60.8 °F 30% 29.89 in 2.5 mi NNE 9.2 mph - N/A   Haze
7:00 PM 73 °F - 64 °F 66% 29.89 in - NNE 26.8 mph - -  
7:00 PM 100.4 °F 98.8 °F 55.4 °F 22% 29.86 in 2.5 mi NE 17.3 mph - N/A   Haze
8:00 PM 98.6 °F 98.5 °F 59.0 °F 27% 29.86 in 2.5 mi NE 12.7 mph - N/A   Haze
10:00 PM 66 °F - 62 °F 82% 29.89 in - NNE 22.4 mph - -